Regional Weather Roundup
Issued by NWS

Home | Current Version | Previous Version | Text Only | Print | Product List | Glossary On
Versions: 1 2 3 4 5 6 7 8 9 10 11 12 13 14 15 16 17 18 19 20 21 22 23 24 25 26 27 28 29 30 31 32 33 34 35 36 37 38 39 40 41 42 43 44 45 46 47 48 49 50
000
ASUS43 KMPX 240901
RWRMN
WEATHER ROUNDUP FOR MINNESOTA
NATIONAL WEATHER SERVICE TWIN CITIES/CHANHASSEN MN
400 AM CDT SUN MAY 24 2015


NOTE: "FAIR" INDICATES FEW OR NO CLOUDS BELOW 12,000 FEET WITH NO
SIGNIFICANT WEATHER AND/OR OBSTRUCTIONS TO VISIBILITY. N/A MEANS
CURRENT SKY AND/OR WEATHER CONDITIONS ARE NOT AVAILABLE.

MNZ060>063-068>070-241000-
   Twin Cities Metro

CITY           SKY/WX    TMP DP  RH WIND       PRES   REMARKS
TWIN CITIES    CLOUDY    61  50  67 NE5       30.10F
ST PAUL        CLOUDY    61  47  59 E6        30.11F
CRYSTAL        CLOUDY    62  49  62 E3        30.10S
BLAINE         CLOUDY    59  54  82 E7        30.11F
LAKEVILLE      CLOUDY    55  48  76 CALM      30.10F
EDEN PRAIRIE   LGT RAIN  61  47  59 NE7       30.09S
SOUTH ST PAUL  CLOUDY    61  46  58 CALM      30.10F
LAKE ELMO      CLOUDY    59  48  67 NE5       30.12F
$$
MNZ001>005-007-008-013>017-022>024-027-028-241000-
   Northwest Minnesota

CITY           SKY/WX    TMP DP  RH WIND       PRES   REMARKS
BEMIDJI        PTCLDY    46  41  84 CALM      30.13F
HALLOCK        CLEAR     50  45  81 SE7       30.09S
ROSEAU         CLEAR     55  46  71 CALM      30.10S
WARROAD        CLEAR     55  46  71 SW5       30.10F
THIEF RVR FALL CLEAR     48  43  81 CALM      30.12S
CROOKSTON      PTCLDY    50  43  76 CALM      30.11S
FOSSTON        PTCLDY    48  41  76 CALM      30.13S
DETROIT LAKES  CLOUDY    54  46  76 E5        30.12F
MOORHEAD       PTCLDY    54  46  76 E5        30.10F
PARK RAPIDS    CLOUDY    55  47  74 CALM      30.12F
MAHNOMEN       FAIR      52  46  78 SE6       30.12S
$$
MNZ006-009>011-018-025>026-241000-
   North Central Minnesota

CITY           SKY/WX    TMP DP  RH WIND       PRES   REMARKS
BAUDETTE       CLEAR     50  43  77 S5        30.11R
FLAG ISLAND    CLEAR     59  45  58 W8        30.08R
INTL FALLS     CLEAR     45  41  86 SW3       30.12R
WASKISH        CLEAR     48  46  93 CALM      30.13S
BIG FORK       CLEAR     43  39  87 CALM      30.14S
LONGVILLE      PTCLDY    46  45  93 CALM      30.14F
GRAND RAPIDS   CLEAR     46  41  81 CALM      30.15S
CRANE LAKE     CLEAR     41  39  93 CALM      30.14R
ORR            CLEAR     46  43  87 CALM      30.12R
COOK           CLEAR     45  43  93 CALM      30.15R
WALKER         FAIR      45  43  95 CALM      30.13F
$$
MNZ012-019>021-037-241000-
   Northeast Minnesota

CITY           SKY/WX    TMP DP  RH WIND       PRES   REMARKS
DULUTH         CLEAR     49  42  77 N3        30.16R
ELY            CLEAR     46  41  81 SW3       30.15R
HIBBING        CLEAR     39  36  89 CALM      30.15R
EVELETH        PTCLDY    41  39  93 CALM      30.16R
DULUTH HARBOR  PTCLDY    54  46  76 SW5       30.16R
TWO HARBORS    PTCLDY    52  45  76 CALM      30.14R
GRAND MARAIS     N/A     48  40  73 SW8       30.08F
G MARAIS ARPRT CLEAR     55  39  54 W8        30.13S
$$
MNZ029>031-032-039>041-046>048-054>057-064-241000-
   West Central Minnesota

CITY           SKY/WX    TMP DP  RH WIND       PRES   REMARKS
FERGUS FALLS   CLOUDY    59  46  63 E5        30.09F
WHEATON        CLOUDY    55  46  71 E6        30.09R
MORRIS         CLOUDY    57  48  72 E8        30.06F
ALEXANDRIA     CLOUDY    59  46  62 E8        30.10F
ELBOW LAKE     MOCLDY    59  47  63 E9        30.08F
WADENA         CLOUDY    52  46  82 NE3       30.10F
GLENWOOD       CLOUDY    59  48  67 E8        30.10F
APPLETON       CLOUDY    57  48  72 E6        30.06S
BENSON         CLOUDY    57  46  67 E3        30.07F
ORTONVILLE     CLOUDY    55  48  76 E3        30.06S
MADISON        CLOUDY    57  48  72 E6        30.05F
WILLMAR        FAIR      61  50  67 E7        30.09F
$$
MNZ033>034-036-042>043-049>051-058-059-241000-
   Central Minnesota

CITY           SKY/WX    TMP DP  RH WIND       PRES   REMARKS
ST CLOUD       CLOUDY    59  47  64 E6        30.10F
SAUK CENTRE    CLOUDY    58  47  67 E6        30.10F
PAYNESVILLE    CLOUDY    57  46  67 NE6       30.10S
AITKIN         MOCLDY    52  46  82 CALM      30.12F
PINE RIVER     CLOUDY    54  48  82 CALM      30.16F
BRAINERD       CLOUDY    57  47  69 CALM      30.12F
STAPLES        CLOUDY    55  46  71 CALM      30.11F
LONG PRAIRIE   CLOUDY    57  46  67 NE5       30.11F
LITTLE FALLS   CLOUDY    54  45  71 CALM      30.11F
LITCHFIELD     CLOUDY    59  52  77 CALM      30.10S
BUFFALO        CLOUDY    59  49  69 E7        30.11S
MAPLE LAKE     CLOUDY    60  52  75 E3        30.10F
$$
MNZ037-044-045-052-053-241000-
   East Central Minnesota

CITY           SKY/WX    TMP DP  RH WIND       PRES   REMARKS
PRINCETON      CLOUDY    61  48  63 E3        30.12S
MORA           MOCLDY    55  45  67 CALM      30.14F
CAMBRIDGE      MOCLDY    63  48  59 CALM      30.10F
RUSH CITY      CLOUDY    58  48  68 E5        30.12F
MOOSE LAKE     CLOUDY    52  46  82 NE3       30.13S
HINCKLEY       PTSUNNY   54  52  94 CALM      30.13F
CLOQUET        CLOUDY    48  43  81 CALM      30.16R
MCGREGOR       CLOUDY    50  46  87 CALM      30.15F
$$
MNZ071>073-080-081-089-090-097-098-241000-
   Southwest Minnesota

CITY           SKY/WX    TMP DP  RH WIND       PRES   REMARKS
MONTEVIDEO     LGT RAIN  59  52  77 SE7       30.07S
GRANITE FALLS  CLOUDY    60  50  70 CALM      30.08S
CANBY          CLOUDY    55  50  83 CALM      30.06F
MARSHALL       CLOUDY    59  50  72 SE6       30.05F
REDWOOD FALLS  CLOUDY    62  50  64 E6        30.06F
OLIVIA         CLOUDY    59  46  63 E6        30.07S
WINDOM         LGT RAIN  59  54  82 CALM      30.06F
WORTHINGTON    CLOUDY    57  55  94 E5        30.06F
JACKSON        CLOUDY    61  54  77 E5        30.07S
TRACY          CLOUDY    61  55  79 SE7       30.06F
SLAYTON        LGT RAIN  58  57  97 CALM      30.06F
$$
MNZ065>067-074>077-082>085-091>093-241000-
   South Central Minnesota

CITY           SKY/WX    TMP DP  RH WIND       PRES   REMARKS
MANKATO        CLOUDY    61  52  72 E7        30.08F
NEW ULM        CLOUDY    61  48  63 NE5       30.07F
ST JAMES       CLOUDY    63  54  72 E5        30.08S
FAIRMONT       CLOUDY    61  50  67 SE9       30.07S
GLENCOE        CLOUDY    61  50  68 E6        30.08F
FARIBAULT      CLOUDY    57  54  88 CALM      30.09F
OWATONNA       CLOUDY    63  50  63 SE6       30.09F
WASECA         CLOUDY    59  50  72 E7        30.09F
ALBERT LEA     CLOUDY    63  52  67 E6        30.08F
$$
MNZ078>079-086>088-094>096-241000-
   Southeast Minnesota

CITY           SKY/WX    TMP DP  RH WIND       PRES   REMARKS
ROCHESTER      CLOUDY    61  50  67 S7        30.13S
RED WING       CLOUDY    57  48  72 CALM      30.10F
STANTON        CLOUDY    60  50  69 CALM      30.09F
DODGE CENTER   CLOUDY    63  52  67 SE8       30.11F
WINONA         CLOUDY    61  52  72 CALM      30.14S
AUSTIN         CLOUDY    61  52  72 SE7       30.09F
PRESTON        CLOUDY    62  48  61 CALM      30.14F
$$
ABBREVIATIONS USED IN REMARKS
   TC - TEMPERATURES IN CELSIUS
  WCI - WIND CHILL INDEX
   HX - HEAT INDEX
  VSB - VISIBILITY
$$


USA.gov is the U.S. government's official web portal to all federal, state and local government web resources and services.